FW7874 Weather Reports


time (UTC)temp
F
wind
direction
speed
knots
gust
knots
rain 1hr
in
rain 24hr
in
rain mn
in
humidity
%
barometer
mb
20260506181404 60 211 0.9 2.6 0.07 0.51 0.49 95 1004.9
20260506175404 60 209 0.0 4.3 0.09 0.48 0.46 95 1004.9
20260506174404 60 221 0.9 2.6 0.09 0.47 0.45 95 1004.8
20260506173404 60 221 1.7 4.3 0.11 0.47 0.45 95 1004.8
20260506172404 59 265 0.0 1.7 0.11 0.46 0.44 94 1005.0
20260506171404 58 265 0.9 2.6 0.10 0.44 0.42 94 1005.2
20260506170404 58 265 0.9 2.6 0.07 0.40 0.38 94 1005.2
20260506165404 58 265 0.0 1.7 0.07 0.39 0.37 94 1005.4
20260506164405 57 265 0.0 1.7 0.08 0.38 0.36 94 1005.5
20260506163404 57 265 0.0 0.9 0.07 0.36 0.34 94 1005.5
20260506162404 57 265 0.0 0.0 0.07 0.35 0.33 94 1005.6
20260506161404 56 265 0.0 0.9 0.08 0.34 0.32 94 1005.6
20260506160404 56 265 0.0 0.0 0.07 0.33 0.31 93 1005.8
20260506155404 56 265 0.0 0.0 0.08 0.32 0.30 93 1006.1
20260506154404 56 265 0.0 0.9 0.07 0.30 0.28 93 1006.2
20260506153404 56 265 0.0 0.9 0.08 0.29 0.27 93 1006.3
20260506152405 56 265 0.0 0.0 0.09 0.28 0.26 93 1006.4
20260506151404 55 265 0.0 0.0 0.10 0.26 0.24 93 1006.4
20260506150404 55 265 0.0 0.0 0.10 0.26 0.24 93 1006.6
20260506144404 55 265 0.0 0.0 0.09 0.23 0.21 92 1006.8
20260506143405 55 265 0.0 0.0 0.07 0.21 0.19 92 1007.1
20260506142404 55 265 0.0 1.7 0.06 0.19 0.17 92 1007.1
20260506141404 55 265 0.9 1.7 0.05 0.16 0.14 92 1007.0
20260506140404 55 265 0.0 0.0 0.07 0.16 0.14 92 1007.2
20260506135404 55 265 0.0 0.0 0.07 0.15 0.13 92 1007.2
20260506134404 55 265 0.0 0.0 0.08 0.14 0.12 92 1007.2
20260506133404 55 265 0.0 0.9 0.09 0.14 0.12 91 1007.0
20260506132405 55 265 0.0 0.0 0.09 0.13 0.11 91 1006.7
20260506131405 55 265 0.0 0.9 0.08 0.11 0.09 91 1006.8
20260506130404 55 265 0.0 0.0 0.06 0.09 0.07 91 1007.0
20260506125404 55 265 0.0 0.9 0.05 0.08 0.06 91 1007.0
20260506124404 55 265 0.0 0.9 0.04 0.06 0.04 91 1006.8
20260506123405 55 265 0.0 0.0 0.03 0.05 0.03 90 1007.1
20260506122404 55 265 0.0 0.0 0.02 0.04 0.02 90 1007.6
20260506121404 55 265 0.0 0.0 0.01 0.03 0.01 90 1007.9
20260506120405 55 265 0.0 1.7 0.01 0.03 0.01 90 1007.8
20260506115404 55 265 0.0 0.9 0.01 0.03 0.01 90 1007.8
20260506114404 55 265 0.0 1.7 0.00 0.02 0.00 90 1007.6
20260506113404 54 265 0.0 2.6 0.00 0.02 0.00 90 1007.5
20260506112404 54 265 0.0 0.9 0.00 0.02 0.00 89 1007.4
20260506111404 54 265 0.9 2.6 0.00 0.02 0.00 89 1006.9
20260506110404 54 265 0.9 1.7 0.00 0.02 0.00 89 1007.1
20260506103406 54 265 0.0 0.0 0.00 0.02 0.00 88 1007.3
20260506102405 54 265 0.0 0.9 0.00 0.02 0.00 88 1006.9
20260506101405 54 265 0.0 0.9 0.00 0.04 0.00 88 1007.0
20260506095405 54 265 0.9 1.7 0.00 0.06 0.00 88 1006.7
20260506094407 54 265 0.9 1.7 0.00 0.06 0.00 87 1006.6
20260506093405 54 265 0.0 2.6 0.00 0.06 0.00 87 1006.7
20260506092405 54 265 0.9 2.6 0.00 0.06 0.00 87 1006.6
20260506090405 55 265 0.0 1.7 0.00 0.06 0.00 86 1006.8
20260506085405 55 265 0.0 0.9 0.00 0.06 0.00 85 1006.8
20260506084405 55 265 0.0 0.0 0.00 0.06 0.00 85 1006.9
20260506083406 55 265 0.0 0.0 0.00 0.06 0.00 85 1007.0
20260506082405 55 265 0.0 0.0 0.00 0.06 0.00 84 1007.4
20260506081405 55 265 0.0 0.0 0.00 0.06 0.00 84 1007.3
20260506080404 55 265 0.0 1.7 0.00 0.06 0.00 84 1007.4
20260506073404 55 265 0.0 2.6 0.00 0.06 0.00 83 1007.7
20260506072405 56 265 0.0 0.9 0.00 0.06 0.00 83 1007.9
20260506071404 56 265 0.0 0.9 0.00 0.06 0.00 83 1007.8
20260506070405 56 265 0.0 0.9 0.00 0.06 0.00 83 1007.9
20260506061404 57 265 0.0 1.7 0.00 0.06 0.00 84 1008.4
20260506060405 57 265 0.0 0.9 0.00 0.06 0.00 85 1008.4
20260506051407 58 265 0.0 0.9 0.00 0.06 0.00 85 1008.5
20260506050406 59 265 0.0 0.0 0.00 0.06 0.00 85 1008.5
20260506044407 59 265 0.0 0.9 0.00 0.06 0.00 85 1008.6
20260506043405 60 265 0.0 0.0 0.00 0.06 0.00 84 1008.4
20260506041404 60 265 0.0 2.6 0.00 0.06 0.00 83 1008.7
20260506040405 60 265 0.0 1.7 0.00 0.06 0.00 83 1008.0
20260506035405 60 265 0.9 10.4 0.00 0.06 0.06 83 1007.7
20260506034405 60 263 1.7 7.0 0.00 0.06 0.06 85 1008.1
20260506033405 61 266 1.7 7.0 0.00 0.06 0.06 87 1008.2
20260506031406 62 260 0.0 2.6 0.00 0.06 0.06 87 1008.1
20260506030405 62 260 0.0 0.0 0.00 0.06 0.06 86 1008.2
20260506023405 63 261 0.0 0.9 0.02 0.06 0.06 83 1007.6
20260506021405 64 260 0.0 0.0 0.02 0.06 0.06 80 1007.6
20260506015405 65 260 0.0 1.7 0.01 0.05 0.05 78 1007.4
20260506014404 65 261 0.0 1.7 0.00 0.04 0.04 77 1007.2
20260506013407 65 260 0.0 0.0 0.00 0.04 0.04 77 1007.0
20260506012405 66 260 0.0 2.6 0.00 0.04 0.04 76 1006.8
20260506011405 66 261 0.9 0.9 0.00 0.04 0.04 73 1006.9
20260506005405 66 261 0.0 2.6 0.00 0.04 0.04 71 1006.7
20260506003405 66 261 0.0 2.6 0.00 0.04 0.04 71 1006.4
20260506001405 66 261 0.0 1.7 0.00 0.04 0.04 71 1005.9
20260506000405 67 260 1.7 2.6 0.00 0.04 0.04 71 1005.8
20260505235405 67 260 0.0 2.6 0.00 0.04 0.04 71 1005.7
20260505234405 67 261 0.9 2.6 0.00 0.04 0.04 70 1005.7
20260505233405 67 261 0.9 2.6 0.00 0.04 0.04 70 1005.6
20260505231405 67 261 1.7 2.6 0.00 0.04 0.04 70 1005.3
20260505230405 67 261 0.9 2.6 0.00 0.04 0.04 70 1005.3
20260505224405 67 265 4.3 13.0 0.00 0.04 0.04 69 1005.3
20260505223405 67 261 3.5 13.0 0.00 0.04 0.04 69 1005.2
20260505222405 68 273 1.7 18.2 0.00 0.04 0.04 68 1005.3
20260505220405 68 259 5.2 17.4 0.00 0.04 0.04 68 1005.7
20260505215405 68 261 4.3 14.8 0.00 0.04 0.04 67 1005.4
20260505214405 68 353 5.2 13.9 0.00 0.04 0.04 66 1005.0
20260505213405 69 267 5.2 13.0 0.00 0.04 0.04 63 1005.4
20260505212405 71 261 2.6 10.4 0.00 0.04 0.04 59 1004.9
20260505210405 78 245 3.5 18.2 0.00 0.04 0.04 48 1004.5
20260505203404 82 208 2.6 8.7 0.00 0.04 0.04 30 1002.7
20260505202405 82 223 2.6 11.3 0.00 0.04 0.04 30 1002.5
20260505201405 81 225 4.3 12.2 0.00 0.04 0.04 30 1002.6
20260505200405 82 261 1.7 11.3 0.00 0.04 0.04 31 1002.6
20260505195405 82 210 4.3 11.3 0.00 0.04 0.04 30 1002.8
20260505194405 83 213 2.6 15.6 0.00 0.04 0.04 30 1002.8
20260505192405 85 176 2.6 11.3 0.00 0.04 0.04 31 1002.8
20260505190405 85 194 3.5 14.8 0.00 0.04 0.04 31 1002.8
20260505185405 84 242 3.5 10.4 0.00 0.04 0.04 32 1002.9
20260505184405 83 220 4.3 14.8 0.00 0.04 0.04 34 1002.9